User: anonymous   Login
Location: Saint-Maurice-d�Ard�che
(44.5216°N, 4.4002°E)
Time: 17:45:13
(UTC+00:00)
Language:

NOSS 3-3 (A) - Orbit

View from above orbital plane
View from above orbital plane
View from above satellite
View from above satellite

Ground track
Ground track

The orbit data is extracted from the following two-line orbital elements,

1 28537U 05004A   20194.93261129 0.00000000  00000-0  00000-0 0    06
2 28537  63.4096 206.9746 0367995 358.5707   1.4292 13.40798965    03
Epoch (UTC): 12 July 2020 22:22:57
Eccentricity: 0.0367995
inclination: 63.4096°
perigee height: 831 km
apogee height: 1382 km
right ascension of ascending node: 206.9746°
argument of perigee: 358.5707°
revolutions per day: 13.40798965
mean anomaly at epoch: 1.4292°
orbit number at epoch: 0

The dashed part of the orbit path shows where the satellite is in the earth's shadow,  

DLR